RYR67AC EGNT-EIDW

Flight info

Callsign RYR67AC
Flight time N/A
Altitude 27000
Route GIRLI P18 GASKO P16 RIBEL/N0381F280 DCT GUNTU Z196 LELDO M145 BAGSO BAGSO4L
Aircraft B738/M-SDE2E3FGHIRWXY/LB1

Departure

Time N/A
Airport Newcastle International Airport (EGNT)

Arrival

Time 2026-05-03 20:54
Airport Dublin Airport (EIDW)
Time Latitude Longitude Altitude Speed Heading
2026-05-03 20:15 54.32016 -1.92634 24986 ft 401 kts 191°
2026-05-03 20:15 54.29248 -1.93499 24999 ft 405 kts 192°
2026-05-03 20:15 54.26488 -1.94362 24990 ft 401 kts 193°
2026-05-03 20:15 54.23834 -1.95695 24986 ft 396 kts 204°
2026-05-03 20:16 54.21399 -1.97857 24990 ft 393 kts 213°
2026-05-03 20:16 54.19226 -2.00662 24984 ft 391 kts 223°
2026-05-03 20:16 54.17254 -2.03842 24993 ft 390 kts 224°
2026-05-03 20:16 54.15322 -2.07007 24990 ft 390 kts 224°
2026-05-03 20:17 54.13360 -2.10206 24994 ft 391 kts 224°
2026-05-03 20:17 54.11381 -2.13404 24982 ft 393 kts 224°
2026-05-03 20:17 54.09374 -2.16624 24992 ft 400 kts 224°
2026-05-03 20:17 54.07334 -2.19882 24989 ft 403 kts 224°
2026-05-03 20:18 54.05290 -2.23138 24984 ft 401 kts 224°
2026-05-03 20:18 54.03234 -2.26403 24976 ft 398 kts 223°
2026-05-03 20:18 54.01253 -2.29636 24979 ft 401 kts 227°
2026-05-03 20:18 53.99436 -2.33223 24986 ft 400 kts 231°
2026-05-03 20:19 53.97696 -2.36913 24978 ft 400 kts 232°
2026-05-03 20:19 53.95975 -2.40622 24977 ft 400 kts 231°
2026-05-03 20:19 53.94257 -2.44315 24977 ft 397 kts 231°
2026-05-03 20:19 53.92548 -2.47955 24966 ft 394 kts 231°
2026-05-03 20:20 53.90831 -2.51583 24978 ft 396 kts 231°
2026-05-03 20:20 53.89094 -2.55232 24977 ft 399 kts 231°
2026-05-03 20:20 53.87347 -2.58885 24971 ft 398 kts 231°
2026-05-03 20:20 53.85595 -2.62535 24968 ft 399 kts 231°
2026-05-03 20:21 53.83859 -2.66147 24958 ft 389 kts 231°
2026-05-03 20:21 53.82184 -2.69627 24951 ft 374 kts 231°
2026-05-03 20:21 53.80550 -2.73017 24958 ft 370 kts 231°
2026-05-03 20:21 53.78941 -2.76350 24951 ft 360 kts 231°
2026-05-03 20:22 53.77369 -2.79604 24956 ft 356 kts 231°
2026-05-03 20:22 53.75810 -2.82825 24956 ft 352 kts 231°
2026-05-03 20:22 53.74263 -2.86019 24959 ft 351 kts 231°
2026-05-03 20:22 53.72720 -2.89200 24968 ft 350 kts 230°
2026-05-03 20:23 53.71180 -2.92372 24973 ft 349 kts 230°
2026-05-03 20:23 53.69639 -2.95539 24967 ft 349 kts 230°
2026-05-03 20:23 53.68097 -2.98707 24964 ft 350 kts 230°
2026-05-03 20:23 53.66570 -3.01841 24966 ft 350 kts 230°
2026-05-03 20:24 53.65024 -3.05010 24969 ft 350 kts 230°
2026-05-03 20:24 53.63452 -3.08226 24964 ft 351 kts 230°
2026-05-03 20:24 53.61919 -3.11358 24964 ft 352 kts 230°
2026-05-03 20:24 53.60511 -3.14740 24944 ft 354 kts 245°
2026-05-03 20:25 53.59899 -3.18745 24972 ft 356 kts 265°
2026-05-03 20:25 53.60095 -3.22899 24977 ft 358 kts 279°
2026-05-03 20:25 53.60598 -3.27021 24967 ft 360 kts 282°
2026-05-03 20:25 53.61139 -3.31142 24965 ft 361 kts 282°
2026-05-03 20:26 53.61680 -3.35277 24962 ft 362 kts 281°
2026-05-03 20:26 53.62211 -3.39434 24962 ft 363 kts 281°
2026-05-03 20:26 53.62730 -3.43593 24959 ft 363 kts 281°
2026-05-03 20:26 53.63242 -3.47757 24959 ft 363 kts 281°
2026-05-03 20:27 53.63749 -3.51922 24958 ft 362 kts 280°
2026-05-03 20:27 53.64252 -3.56081 24959 ft 362 kts 281°
2026-05-03 20:27 53.64753 -3.60235 24958 ft 361 kts 281°
2026-05-03 20:27 53.65264 -3.64373 24961 ft 361 kts 282°
2026-05-03 20:28 53.65850 -3.68484 24962 ft 360 kts 283°
2026-05-03 20:28 53.66464 -3.72577 24962 ft 360 kts 284°
2026-05-03 20:28 53.67081 -3.76667 24964 ft 360 kts 283°
2026-05-03 20:28 53.67690 -3.80762 24971 ft 360 kts 283°
2026-05-03 20:29 53.68295 -3.84874 24969 ft 361 kts 283°
2026-05-03 20:29 53.68886 -3.88931 24965 ft 361 kts 283°
2026-05-03 20:29 53.69481 -3.93043 24964 ft 361 kts 283°
2026-05-03 20:29 53.70075 -3.97155 24964 ft 361 kts 283°
2026-05-03 20:30 53.70667 -4.01272 24966 ft 361 kts 283°
2026-05-03 20:30 53.71256 -4.05386 24967 ft 361 kts 283°
2026-05-03 20:30 53.71784 -4.09517 24964 ft 360 kts 277°
2026-05-03 20:30 53.72004 -4.13734 24974 ft 360 kts 273°
2026-05-03 20:31 53.72130 -4.17952 24970 ft 360 kts 273°
2026-05-03 20:31 53.72248 -4.22180 24937 ft 363 kts 273°
2026-05-03 20:31 53.72333 -4.25010 24846 ft 365 kts 273°
2026-05-03 20:31 53.72470 -4.29273 24717 ft 362 kts 273°
2026-05-03 20:32 53.72616 -4.33506 24596 ft 360 kts 274°
2026-05-03 20:32 53.72765 -4.37719 24472 ft 359 kts 274°
2026-05-03 20:32 53.72914 -4.41933 24352 ft 359 kts 274°
2026-05-03 20:32 53.73061 -4.46150 24240 ft 359 kts 274°
2026-05-03 20:33 53.73207 -4.50362 24115 ft 359 kts 274°
2026-05-03 20:33 53.73352 -4.54568 23997 ft 359 kts 273°
2026-05-03 20:33 53.73493 -4.58716 23884 ft 359 kts 273°
2026-05-03 20:33 53.73637 -4.62972 23766 ft 358 kts 273°
2026-05-03 20:34 53.73777 -4.67171 23647 ft 358 kts 273°
2026-05-03 20:34 53.73914 -4.71312 23525 ft 358 kts 274°
2026-05-03 20:34 53.74053 -4.75507 23385 ft 357 kts 274°
2026-05-03 20:34 53.74188 -4.79701 23254 ft 357 kts 274°
2026-05-03 20:35 53.74322 -4.83879 23114 ft 356 kts 274°
2026-05-03 20:35 53.74460 -4.88058 22972 ft 356 kts 274°
2026-05-03 20:35 53.74599 -4.92227 22839 ft 355 kts 274°
2026-05-03 20:35 53.74736 -4.96389 22698 ft 354 kts 274°
2026-05-03 20:36 53.74873 -5.00555 22423 ft 357 kts 274°
2026-05-03 20:36 53.75009 -5.04755 22012 ft 358 kts 274°
2026-05-03 20:36 53.75142 -5.08953 21617 ft 356 kts 273°
2026-05-03 20:36 53.75199 -5.13126 21213 ft 355 kts 266°
2026-05-03 20:37 53.74738 -5.17200 20821 ft 353 kts 252°
2026-05-03 20:37 53.73946 -5.21113 20450 ft 351 kts 251°
2026-05-03 20:37 53.73133 -5.24987 20079 ft 349 kts 251°
2026-05-03 20:37 53.72325 -5.28847 19688 ft 348 kts 251°
2026-05-03 20:38 53.71531 -5.32692 19329 ft 346 kts 251°
2026-05-03 20:38 53.70745 -5.36526 18967 ft 345 kts 251°
2026-05-03 20:38 53.69969 -5.40341 18608 ft 343 kts 252°
2026-05-03 20:38 53.69195 -5.44140 18248 ft 342 kts 251°
2026-05-03 20:39 53.68421 -5.47930 17763 ft 342 kts 251°
2026-05-03 20:39 53.67689 -5.51732 17114 ft 348 kts 256°
2026-05-03 20:39 53.67139 -5.55730 16493 ft 352 kts 259°
2026-05-03 20:39 53.66653 -5.59792 15884 ft 355 kts 260°
2026-05-03 20:40 53.66161 -5.63889 15292 ft 358 kts 259°
2026-05-03 20:40 53.65642 -5.68011 14698 ft 361 kts 258°
2026-05-03 20:40 53.65102 -5.72154 14111 ft 363 kts 258°
2026-05-03 20:40 53.64551 -5.76315 13535 ft 364 kts 258°
2026-05-03 20:41 53.63996 -5.80488 12880 ft 365 kts 258°
2026-05-03 20:41 53.63439 -5.84672 12253 ft 366 kts 258°
2026-05-03 20:41 53.62881 -5.88849 11638 ft 362 kts 258°
2026-05-03 20:41 53.62333 -5.92941 11024 ft 353 kts 258°
2026-05-03 20:42 53.61798 -5.96932 10425 ft 344 kts 258°
2026-05-03 20:42 53.61276 -6.00819 9875 ft 337 kts 258°
2026-05-03 20:42 53.60769 -6.04589 9481 ft 323 kts 258°
2026-05-03 20:42 53.60279 -6.08218 9070 ft 313 kts 258°
2026-05-03 20:43 53.59802 -6.11737 8682 ft 303 kts 258°
2026-05-03 20:43 53.59344 -6.15109 8276 ft 296 kts 259°
2026-05-03 20:43 53.58885 -6.18487 7926 ft 286 kts 258°
2026-05-03 20:43 53.58456 -6.21634 7569 ft 276 kts 259°
2026-05-03 20:44 53.58073 -6.24736 7215 ft 267 kts 262°
2026-05-03 20:44 53.57791 -6.27784 6846 ft 260 kts 263°
2026-05-03 20:44 53.57533 -6.30758 6466 ft 254 kts 263°
2026-05-03 20:44 53.57277 -6.33682 6070 ft 250 kts 263°
2026-05-03 20:45 53.57046 -6.36569 5679 ft 248 kts 266°
2026-05-03 20:45 53.56915 -6.39444 5296 ft 246 kts 268°
2026-05-03 20:45 53.56802 -6.42283 4906 ft 239 kts 268°
2026-05-03 20:45 53.56695 -6.45036 4508 ft 233 kts 268°
2026-05-03 20:46 53.56585 -6.47737 4110 ft 230 kts 268°
2026-05-03 20:46 53.56481 -6.50431 4024 ft 234 kts 268°
2026-05-03 20:46 53.56378 -6.53175 3827 ft 234 kts 268°
2026-05-03 20:46 53.56250 -6.55839 3566 ft 223 kts 261°
2026-05-03 20:47 53.55573 -6.58121 3310 ft 216 kts 224°
2026-05-03 20:47 53.54349 -6.59360 3104 ft 203 kts 200°
2026-05-03 20:47 53.53056 -6.60196 2998 ft 200 kts 199°
2026-05-03 20:47 53.51749 -6.61016 3005 ft 202 kts 198°
2026-05-03 20:48 53.50436 -6.61838 2981 ft 200 kts 199°
2026-05-03 20:48 53.49107 -6.62406 2972 ft 196 kts 174°
2026-05-03 20:48 53.47836 -6.61766 3009 ft 192 kts 150°
2026-05-03 20:48 53.46616 -6.60747 2996 ft 196 kts 148°
2026-05-03 20:49 53.45553 -6.59406 2964 ft 186 kts 117°
2026-05-03 20:49 53.45321 -6.57473 3001 ft 164 kts 85°
2026-05-03 20:49 53.45277 -6.55566 2984 ft 163 kts 91°
2026-05-03 20:49 53.45174 -6.53658 2988 ft 166 kts 92°
2026-05-03 20:50 53.45064 -6.51720 2976 ft 168 kts 92°
2026-05-03 20:50 53.44950 -6.49748 2802 ft 172 kts 92°
2026-05-03 20:50 53.44835 -6.47759 2574 ft 170 kts 92°
2026-05-03 20:50 53.44722 -6.45797 2343 ft 168 kts 92°
2026-05-03 20:51 53.44611 -6.43875 2116 ft 163 kts 92°
2026-05-03 20:51 53.44503 -6.41987 1893 ft 160 kts 92°
2026-05-03 20:51 53.44399 -6.40167 1685 ft 156 kts 91°
2026-05-03 20:51 53.44298 -6.38382 1463 ft 152 kts 92°
2026-05-03 20:52 53.44201 -6.36675 1242 ft 144 kts 92°
2026-05-03 20:52 53.44107 -6.35005 1071 ft 146 kts 92°
2026-05-03 20:52 53.44010 -6.33317 895 ft 143 kts 94°
2026-05-03 20:52 53.43905 -6.31658 674 ft 142 kts 93°
2026-05-03 20:53 53.43814 -6.30005 509 ft 143 kts 94°
2026-05-03 20:53 53.43732 -6.28369 296 ft 143 kts 94°
2026-05-03 20:53 53.43648 -6.26786 214 ft 128 kts 96°
2026-05-03 20:53 53.43584 -6.25673 208 ft 60 kts 95°
2026-05-03 20:54 53.43520 -6.25205 213 ft 30 kts 117°
2026-05-03 20:54 53.43383 -6.25119 212 ft 6 kts 274°
2026-05-03 20:54 53.43386 -6.25192 218 ft 6 kts 275°
2026-05-03 20:55 53.43390 -6.25264 212 ft 6 kts 275°
2026-05-03 20:55 53.43394 -6.25334 214 ft 6 kts 277°
2026-05-03 20:55 53.43400 -6.25414 213 ft 8 kts 275°
2026-05-03 20:55 53.43405 -6.25522 210 ft 9 kts 276°
2026-05-03 20:56 53.43406 -6.25542 210 ft 0 kts 275°
2026-05-03 20:58 53.43407 -6.25560 210 ft 4 kts 275°
2026-05-03 20:58 53.43397 -6.25631 214 ft 9 kts 231°
2026-05-03 20:58 53.43343 -6.25644 210 ft 7 kts 152°
2026-05-03 20:58 53.43284 -6.25590 215 ft 12 kts 152°
2026-05-03 20:59 53.43195 -6.25509 214 ft 8 kts 150°
2026-05-03 20:59 53.43130 -6.25487 219 ft 12 kts 157°
2026-05-03 20:59 53.43107 -6.25470 216 ft 0 kts 157°
2026-05-03 20:59 53.43106 -6.25470 216 ft 1 kts 157°
2026-05-03 21:00 53.43095 -6.25462 218 ft 4 kts 156°
2026-05-03 21:00 53.43052 -6.25431 212 ft 16 kts 157°
2026-05-03 21:00 53.42947 -6.25334 210 ft 12 kts 111°
2026-05-03 21:00 53.42963 -6.25201 210 ft 12 kts 89°
2026-05-03 21:01 53.42956 -6.25068 213 ft 11 kts 94°
2026-05-03 21:01 53.42953 -6.24997 213 ft 0 kts 94°
2026-05-03 21:01 53.42953 -6.24996 213 ft 0 kts 94°
2026-05-03 21:01 53.42953 -6.24972 217 ft 4 kts 75°
2026-05-03 21:02 53.42999 -6.24945 210 ft 8 kts
2026-05-03 21:02 53.43009 -6.24943 210 ft 0 kts